Time,TemperatureF,DewpointF,PressureIn,WindDirection,WindDirectionDegrees,WindSpeedMPH,WindSpeedGustMPH,Humidity,HourlyPrecipIn,Conditions,Clouds,dailyrainin,SoftwareType,DateUTC
2013-07-03 00:00:00,64.0,57.4,30.04,NNE,20,0.0,0.0,79,0.00,,,0.00,VWS V15.00,2013-07-03 05:00:00,
2013-07-03 00:03:00,64.0,57.7,30.04,NNE,20,0.0,0.0,80,0.00,,,0.00,VWS V14.01,2013-07-03 05:03:00,
2013-07-03 00:07:00,63.9,58.0,30.04,NNE,20,0.0,0.0,81,0.00,,,0.00,VWS V14.01,2013-07-03 05:07:00,
2013-07-03 00:12:00,63.8,57.9,30.04,NNE,20,0.0,0.0,81,0.00,,,0.00,VWS V14.01,2013-07-03 05:12:00,
2013-07-03 00:17:00,63.6,58.0,30.04,NNE,20,0.0,0.0,82,0.00,,,0.00,VWS V14.01,2013-07-03 05:17:00,
2013-07-03 00:19:00,63.5,57.9,30.04,NNE,19,0.0,0.0,82,0.00,,,0.00,VWS V14.01,2013-07-03 05:19:00,
2013-07-03 00:24:00,63.3,57.7,30.04,NNE,20,0.0,0.0,82,0.00,,,0.00,VWS V14.01,2013-07-03 05:24:00,
2013-07-03 00:30:00,63.0,57.4,30.03,NNE,19,0.0,0.0,82,0.00,,,0.00,VWS V14.01,2013-07-03 05:30:00,
2013-07-03 00:35:00,62.8,57.2,30.03,NNE,20,0.0,0.0,82,0.00,,,0.00,VWS V14.01,2013-07-03 05:35:00,
2013-07-03 00:40:00,62.7,57.1,30.03,NNE,20,0.0,0.0,82,0.00,,,0.00,VWS V14.01,2013-07-03 05:40:00,
2013-07-03 00:45:00,62.6,57.4,30.03,NNE,19,0.0,0.0,83,0.00,,,0.00,VWS V14.01,2013-07-03 05:45:00,
2013-07-03 00:50:00,62.4,57.2,30.03,NNE,19,0.0,0.0,83,0.00,,,0.00,VWS V14.01,2013-07-03 05:50:00,
2013-07-03 00:54:00,62.2,57.0,30.03,NNE,19,0.0,0.0,83,0.00,,,0.00,VWS V14.01,2013-07-03 05:54:00,
2013-07-03 00:57:00,62.1,56.5,30.03,NNE,20,0.0,0.0,82,0.00,,,0.00,VWS V14.01,2013-07-03 05:57:00,
2013-07-03 01:01:00,62.0,56.8,30.03,NNE,20,0.0,0.0,83,0.00,,,0.00,VWS V14.01,2013-07-03 06:01:00,
2013-07-03 01:02:00,61.9,56.7,30.03,NNE,20,0.0,0.0,83,0.00,,,0.00,VWS V14.01,2013-07-03 06:02:00,
2013-07-03 01:07:00,61.8,56.6,30.03,NNE,19,0.0,0.0,83,0.00,,,0.00,VWS V14.01,2013-07-03 06:07:00,
2013-07-03 01:12:00,61.7,56.5,30.03,NNE,19,0.0,0.0,83,0.00,,,0.00,VWS V14.01,2013-07-03 06:12:00,
2013-07-03 01:14:00,61.6,56.4,30.03,NNE,19,0.0,0.0,83,0.00,,,0.00,VWS V14.01,2013-07-03 06:14:00,
2013-07-03 01:17:00,61.6,56.4,30.03,NNE,20,0.0,0.0,83,0.00,,,0.00,VWS V14.01,2013-07-03 06:17:00,
2013-07-03 01:22:00,61.5,56.6,30.03,NNE,20,0.0,0.0,84,0.00,,,0.00,VWS V14.01,2013-07-03 06:22:00,
2013-07-03 01:25:00,61.5,57.0,30.03,NNE,20,0.0,0.0,85,0.00,,,0.00,VWS V14.01,2013-07-03 06:25:00,
2013-07-03 01:27:00,61.5,57.0,30.03,NNE,20,0.0,0.0,85,0.00,,,0.00,VWS V14.01,2013-07-03 06:27:00,
2013-07-03 01:32:00,61.4,56.9,30.03,NNE,19,0.0,0.0,85,0.00,,,0.00,VWS V14.01,2013-07-03 06:32:00,
2013-07-03 01:37:00,61.3,56.4,30.03,NNE,19,0.0,0.0,84,0.00,,,0.00,VWS V14.01,2013-07-03 06:37:00,
2013-07-03 01:42:00,61.2,56.7,30.03,NNE,20,0.0,0.0,85,0.00,,,0.00,VWS V14.01,2013-07-03 06:42:00,
2013-07-03 01:45:00,61.2,56.7,30.03,NNE,20,0.0,0.0,85,0.00,,,0.00,VWS V14.01,2013-07-03 06:45:00,
2013-07-03 01:50:00,61.1,56.6,30.03,NNE,20,0.0,0.0,85,0.00,,,0.00,VWS V14.01,2013-07-03 06:50:00,
2013-07-03 01:55:00,60.9,56.4,30.02,NNE,19,0.0,0.0,85,0.00,,,0.00,VWS V14.01,2013-07-03 06:55:00,
2013-07-03 02:00:00,60.8,56.6,30.02,NNE,20,0.0,0.0,86,0.00,,,0.00,VWS V14.01,2013-07-03 07:00:00,
2013-07-03 02:05:00,60.6,56.1,30.02,NNE,19,0.0,0.0,85,0.00,,,0.00,VWS V14.01,2013-07-03 07:05:00,
2013-07-03 02:11:00,60.5,56.3,30.02,NNE,20,0.0,0.0,86,0.00,,,0.00,VWS V14.01,2013-07-03 07:11:00,
2013-07-03 02:16:00,60.4,56.2,30.02,NNE,19,0.0,0.0,86,0.00,,,0.00,VWS V14.01,2013-07-03 07:16:00,
2013-07-03 02:21:00,60.3,56.1,30.02,NNE,19,0.0,0.0,86,0.00,,,0.00,VWS V14.01,2013-07-03 07:21:00,
2013-07-03 02:26:00,60.2,56.0,30.02,NNE,19,0.0,0.0,86,0.00,,,0.00,VWS V14.01,2013-07-03 07:26:00,
2013-07-03 02:31:00,60.2,56.0,30.02,NNE,20,0.0,0.0,86,0.00,,,0.00,VWS V14.01,2013-07-03 07:31:00,
2013-07-03 02:36:00,60.1,56.2,30.02,NNE,20,0.0,0.0,87,0.00,,,0.00,VWS V14.01,2013-07-03 07:36:00,
2013-07-03 02:40:00,60.0,56.1,30.02,NNE,20,0.0,0.0,87,0.00,,,0.00,VWS V14.01,2013-07-03 07:40:00,
2013-07-03 02:45:00,59.9,56.0,30.02,NNE,19,0.0,0.0,87,0.00,,,0.00,VWS V14.01,2013-07-03 07:45:00,
2013-07-03 02:50:00,59.7,55.8,30.02,NNE,19,0.0,0.0,87,0.00,,,0.00,VWS V14.01,2013-07-03 07:50:00,
2013-07-03 02:51:00,59.7,55.8,30.02,NNE,20,0.0,0.0,87,0.00,,,0.00,VWS V14.01,2013-07-03 07:51:00,
2013-07-03 02:56:00,59.5,55.6,30.02,NNE,20,0.0,0.0,87,0.00,,,0.00,VWS V14.01,2013-07-03 07:56:00,
2013-07-03 03:02:00,59.4,55.5,30.02,NNE,19,0.0,0.0,87,0.00,,,0.00,VWS V14.01,2013-07-03 08:02:00,
2013-07-03 03:08:00,59.3,55.4,30.02,NNE,20,0.0,0.0,87,0.00,,,0.00,VWS V14.01,2013-07-03 08:08:00,
2013-07-03 03:09:00,59.3,55.4,30.02,NNE,20,0.0,0.0,87,0.00,,,0.00,VWS V14.01,2013-07-03 08:09:00,
2013-07-03 03:12:00,59.2,55.3,30.02,NNE,20,0.0,0.0,87,0.00,,,0.00,VWS V14.01,2013-07-03 08:12:00,
2013-07-03 03:17:00,59.1,55.2,30.02,NNE,20,0.0,0.0,87,0.00,,,0.00,VWS V14.01,2013-07-03 08:17:00,
2013-07-03 03:22:00,59.0,55.8,30.02,NNE,20,0.0,0.0,89,0.00,,,0.00,VWS V14.01,2013-07-03 08:22:00,
2013-07-03 03:24:00,59.0,55.1,30.02,NNE,20,0.0,0.0,87,0.00,,,0.00,VWS V14.01,2013-07-03 08:24:00,
2013-07-03 03:30:00,58.9,55.0,30.02,NNE,20,0.0,0.0,87,0.00,,,0.00,VWS V14.01,2013-07-03 08:30:00,
2013-07-03 03:36:00,58.8,55.0,30.02,NNE,19,0.0,0.0,87,0.00,,,0.00,VWS V14.01,2013-07-03 08:36:00,
2013-07-03 03:41:00,58.8,55.0,30.02,NNE,20,0.0,0.0,87,0.00,,,0.00,VWS V14.01,2013-07-03 08:41:00,
2013-07-03 03:43:00,58.7,54.8,30.02,NNE,19,0.0,0.0,87,0.00,,,0.00,VWS V14.01,2013-07-03 08:43:00,
2013-07-03 03:48:00,58.6,54.8,30.01,NNE,20,0.0,0.0,87,0.00,,,0.00,VWS V14.01,2013-07-03 08:48:00,
2013-07-03 03:53:00,58.6,55.1,30.01,NNE,20,0.0,0.0,88,0.00,,,0.00,VWS V14.01,2013-07-03 08:53:00,
2013-07-03 03:54:00,58.6,55.1,30.01,NNE,20,0.0,0.0,88,0.00,,,0.00,VWS V14.01,2013-07-03 08:54:00,
2013-07-03 03:59:00,58.6,55.1,30.01,NNE,20,0.0,0.0,88,0.00,,,0.00,VWS V14.01,2013-07-03 08:59:00,
2013-07-03 04:04:00,58.5,55.0,30.01,NNE,20,0.0,0.0,88,0.00,,,0.00,VWS V14.01,2013-07-03 09:04:00,
2013-07-03 04:05:00,58.5,55.0,30.01,NNE,20,0.0,0.0,88,0.00,,,0.00,VWS V14.01,2013-07-03 09:05:00,
2013-07-03 04:11:00,58.5,55.0,30.01,NNE,19,0.0,0.0,88,0.00,,,0.00,VWS V14.01,2013-07-03 09:11:00,
2013-07-03 04:16:00,58.4,54.9,30.01,NNE,20,0.0,0.0,88,0.00,,,0.00,VWS V14.01,2013-07-03 09:16:00,
2013-07-03 04:21:00,58.4,54.9,30.01,NNE,20,0.0,0.0,88,0.00,,,0.00,VWS V14.01,2013-07-03 09:21:00,
2013-07-03 04:27:00,58.3,54.8,30.01,NNE,20,0.0,0.0,88,0.00,,,0.00,VWS V14.01,2013-07-03 09:27:00,
2013-07-03 04:30:00,58.3,54.8,30.01,NNE,20,0.0,0.0,88,0.00,,,0.00,VWS V15.00,2013-07-03 09:30:00,
2013-07-03 04:32:00,58.3,54.8,30.01,NNE,20,0.0,0.0,88,0.00,,,0.00,VWS V14.01,2013-07-03 09:32:00,
2013-07-03 04:37:00,58.3,54.8,30.01,NNE,20,0.0,0.0,88,0.00,,,0.00,VWS V14.01,2013-07-03 09:37:00,
2013-07-03 04:42:00,58.3,54.8,30.01,NNE,19,0.0,0.0,88,0.00,,,0.00,VWS V14.01,2013-07-03 09:42:00,
2013-07-03 04:43:00,58.2,55.0,30.01,NNE,20,0.0,0.0,89,0.00,,,0.00,VWS V14.01,2013-07-03 09:43:00,
2013-07-03 04:49:00,58.2,54.7,30.01,NNE,20,0.0,0.0,88,0.00,,,0.00,VWS V14.01,2013-07-03 09:49:00,
2013-07-03 04:54:00,58.0,54.5,30.01,NNE,20,0.0,0.0,88,0.00,,,0.00,VWS V14.01,2013-07-03 09:54:00,
2013-07-03 04:59:00,58.0,54.5,30.01,NNE,20,0.0,0.0,88,0.00,,,0.00,VWS V14.01,2013-07-03 09:59:00,
2013-07-03 05:04:00,57.9,54.4,30.01,NNE,21,0.0,0.0,88,0.00,,,0.00,VWS V14.01,2013-07-03 10:04:00,
2013-07-03 05:06:00,57.9,54.4,30.01,NNE,20,0.0,0.0,88,0.00,,,0.00,VWS V14.01,2013-07-03 10:06:00,
2013-07-03 05:11:00,57.7,54.2,30.01,NNE,20,0.0,0.0,88,0.00,,,0.00,VWS V14.01,2013-07-03 10:11:00,
2013-07-03 05:16:00,57.6,54.1,30.01,NNE,20,0.0,0.0,88,0.00,,,0.00,VWS V14.01,2013-07-03 10:16:00,
2013-07-03 05:22:00,57.6,54.4,30.01,NNE,20,0.0,0.0,89,0.00,,,0.00,VWS V14.01,2013-07-03 10:22:00,
2013-07-03 05:27:00,57.6,54.4,30.01,NNE,20,0.0,0.0,89,0.00,,,0.00,VWS V14.01,2013-07-03 10:27:00,
2013-07-03 05:30:00,57.6,54.4,30.01,NNE,20,0.0,0.0,89,0.00,,,0.00,VWS V15.00,2013-07-03 10:30:00,
2013-07-03 05:31:00,57.6,54.4,30.01,NNE,20,0.0,0.0,89,0.00,,,0.00,VWS V14.01,2013-07-03 10:31:00,
2013-07-03 05:36:00,57.6,54.4,30.01,NNE,28,0.0,0.0,89,0.00,,,0.00,VWS V14.01,2013-07-03 10:36:00,
2013-07-03 05:42:00,57.7,54.5,30.01,NNE,29,0.0,0.0,89,0.00,,,0.00,VWS V14.01,2013-07-03 10:42:00,
2013-07-03 05:47:00,57.7,54.5,30.01,NNE,29,0.0,0.0,89,0.00,,,0.00,VWS V14.01,2013-07-03 10:47:00,
2013-07-03 05:52:00,57.6,54.4,30.01,NNE,29,0.0,0.0,89,0.00,,,0.00,VWS V14.01,2013-07-03 10:52:00,
2013-07-03 05:56:00,57.7,54.5,30.02,NNE,27,0.0,0.0,89,0.00,,,0.00,VWS V14.01,2013-07-03 10:56:00,
2013-07-03 05:58:00,57.8,54.6,30.02,NNE,27,0.0,0.0,89,0.00,,,0.00,VWS V14.01,2013-07-03 10:58:00,
2013-07-03 06:00:00,57.9,54.7,30.02,NNE,26,0.0,0.0,89,0.00,,,0.00,VWS V15.00,2013-07-03 11:00:00,
2013-07-03 06:04:00,57.9,54.7,30.02,NNE,27,0.0,0.0,89,0.00,,,0.00,VWS V14.01,2013-07-03 11:04:00,
2013-07-03 06:08:00,57.7,54.5,30.02,NNE,26,0.0,0.0,89,0.00,,,0.00,VWS V14.01,2013-07-03 11:08:00,
2013-07-03 06:12:00,57.7,54.5,30.02,NNE,26,0.0,0.0,89,0.00,,,0.00,VWS V14.01,2013-07-03 11:12:00,
2013-07-03 06:17:00,58.1,54.9,30.02,NNE,26,0.0,0.0,89,0.00,,,0.00,VWS V14.01,2013-07-03 11:17:00,
2013-07-03 06:22:00,58.3,56.0,30.02,NNE,27,0.0,0.0,92,0.00,,,0.00,VWS V14.01,2013-07-03 11:22:00,
2013-07-03 06:27:00,58.6,55.7,30.02,NNE,26,0.0,0.0,90,0.00,,,0.00,VWS V14.01,2013-07-03 11:27:00,
2013-07-03 06:30:00,58.9,56.0,30.02,NNE,26,0.0,0.0,90,0.00,,,0.00,VWS V15.00,2013-07-03 11:30:00,
2013-07-03 06:33:00,59.2,56.3,30.03,NNE,26,0.0,0.0,90,0.00,,,0.00,VWS V14.01,2013-07-03 11:33:00,
2013-07-03 06:38:00,60.3,57.4,30.03,NNE,26,0.0,0.0,90,0.00,,,0.00,VWS V14.01,2013-07-03 11:38:00,
2013-07-03 06:44:00,61.0,58.0,30.02,NNE,26,0.0,0.0,90,0.00,,,0.00,VWS V14.01,2013-07-03 11:44:00,
2013-07-03 06:46:00,61.1,58.2,30.02,NNE,26,0.0,0.0,90,0.00,,,0.00,VWS V14.01,2013-07-03 11:46:00,
2013-07-03 06:52:00,61.6,58.6,30.02,NNE,25,0.0,0.0,90,0.00,,,0.00,VWS V14.01,2013-07-03 11:52:00,
2013-07-03 06:57:00,62.3,59.3,30.02,NNE,25,0.0,0.0,90,0.00,,,0.00,VWS V14.01,2013-07-03 11:57:00,
2013-07-03 06:59:00,62.6,59.6,30.03,NNE,25,0.0,0.0,90,0.00,,,0.00,VWS V14.01,2013-07-03 11:59:00,
2013-07-03 07:02:00,63.4,60.1,30.03,NNE,26,0.0,0.0,89,0.00,,,0.00,VWS V14.01,2013-07-03 12:02:00,
2013-07-03 07:08:00,64.7,60.8,30.03,NE,48,0.0,0.0,87,0.00,,,0.00,VWS V14.01,2013-07-03 12:08:00,
2013-07-03 07:14:00,66.2,60.9,30.03,NE,48,0.0,0.0,83,0.00,,,0.00,VWS V14.01,2013-07-03 12:14:00,
2013-07-03 07:18:00,67.1,61.4,30.03,NE,48,0.0,0.0,82,0.00,,,0.00,VWS V14.01,2013-07-03 12:18:00,
2013-07-03 07:21:00,67.8,61.8,30.03,NE,48,0.0,0.0,81,0.00,,,0.00,VWS V14.01,2013-07-03 12:21:00,
2013-07-03 07:26:00,68.4,62.0,30.03,NE,48,0.0,0.0,80,0.00,,,0.00,VWS V14.01,2013-07-03 12:26:00,
2013-07-03 07:32:00,69.7,61.8,30.03,NE,48,0.0,0.0,76,0.00,,,0.00,VWS V14.01,2013-07-03 12:32:00,
2013-07-03 07:37:00,70.7,62.8,30.03,NE,48,0.0,0.0,76,0.00,,,0.00,VWS V14.01,2013-07-03 12:37:00,
2013-07-03 07:43:00,71.5,62.8,30.03,WSW,254,0.0,2.0,74,0.00,,,0.00,VWS V14.01,2013-07-03 12:43:00,
2013-07-03 07:47:00,72.0,62.5,30.03,South,174,0.0,2.0,72,0.00,,,0.00,VWS V14.01,2013-07-03 12:47:00,
2013-07-03 07:52:00,72.4,61.7,30.03,South,174,0.0,2.0,69,0.00,,,0.00,VWS V14.01,2013-07-03 12:52:00,
2013-07-03 07:58:00,73.0,62.2,30.03,South,173,0.0,2.0,69,0.00,,,0.00,VWS V14.01,2013-07-03 12:58:00,
2013-07-03 08:03:00,73.2,61.2,30.03,South,173,0.0,0.0,66,0.00,,,0.00,VWS V14.01,2013-07-03 13:03:00,
2013-07-03 08:09:00,73.5,61.5,30.03,South,173,0.0,0.0,66,0.00,,,0.00,VWS V14.01,2013-07-03 13:09:00,
2013-07-03 08:14:00,74.2,63.0,30.03,South,173,0.0,0.0,68,0.00,,,0.00,VWS V14.01,2013-07-03 13:14:00,
2013-07-03 08:20:00,74.5,62.8,30.03,South,173,0.0,0.0,67,0.00,,,0.00,VWS V14.01,2013-07-03 13:20:00,
2013-07-03 08:25:00,75.0,62.9,30.03,WSW,257,0.0,0.0,66,0.00,,,0.00,VWS V14.01,2013-07-03 13:25:00,
2013-07-03 08:26:00,75.1,63.4,30.03,WSW,256,0.0,0.0,67,0.00,,,0.00,VWS V14.01,2013-07-03 13:26:00,
2013-07-03 08:31:00,75.3,61.4,30.03,WSW,256,0.0,0.0,62,0.00,,,0.00,VWS V14.01,2013-07-03 13:31:00,
2013-07-03 08:36:00,75.7,61.8,30.03,WSW,256,0.0,0.0,62,0.00,,,0.00,VWS V14.01,2013-07-03 13:36:00,
2013-07-03 08:39:00,76.0,62.5,30.03,WSW,256,0.0,0.0,63,0.00,,,0.00,VWS V14.01,2013-07-03 13:39:00,
2013-07-03 08:45:00,76.3,62.8,30.04,WSW,254,0.0,1.0,63,0.00,,,0.00,VWS V14.01,2013-07-03 13:45:00,
2013-07-03 08:50:00,76.4,62.0,30.03,WSW,254,0.0,1.0,61,0.00,,,0.00,VWS V14.01,2013-07-03 13:50:00,
2013-07-03 08:56:00,76.4,62.0,30.03,WSW,254,0.0,1.0,61,0.00,,,0.00,VWS V14.01,2013-07-03 13:56:00,
2013-07-03 09:01:00,76.6,63.1,30.03,WSW,254,0.0,1.0,63,0.00,,,0.00,VWS V14.01,2013-07-03 14:01:00,
2013-07-03 09:06:00,76.8,62.8,30.03,WSW,254,0.0,0.0,62,0.00,,,0.00,VWS V14.01,2013-07-03 14:06:00,
2013-07-03 09:09:00,76.7,61.8,30.03,WSW,255,0.0,0.0,60,0.00,,,0.00,VWS V14.01,2013-07-03 14:09:00,
2013-07-03 09:14:00,76.6,60.7,30.03,WSW,254,0.0,0.0,58,0.00,,,0.00,VWS V14.01,2013-07-03 14:14:00,
2013-07-03 09:19:00,76.6,61.2,30.03,WSW,254,0.0,0.0,59,0.00,,,0.00,VWS V14.01,2013-07-03 14:19:00,
2013-07-03 09:24:00,76.5,59.7,30.02,WSW,254,0.0,0.0,56,0.00,,,0.00,VWS V14.01,2013-07-03 14:24:00,
2013-07-03 09:29:00,77.0,59.6,30.02,East,96,0.0,0.0,55,0.00,,,0.00,VWS V14.01,2013-07-03 14:29:00,
2013-07-03 09:30:00,77.3,61.9,30.02,East,96,0.0,0.0,59,0.00,,,0.00,VWS V15.00,2013-07-03 14:30:00,
2013-07-03 09:32:00,77.4,60.5,30.02,East,96,0.0,0.0,56,0.00,,,0.00,VWS V14.01,2013-07-03 14:32:00,
2013-07-03 09:37:00,77.9,60.5,30.02,NW,313,0.0,1.0,55,0.00,,,0.00,VWS V14.01,2013-07-03 14:37:00,
2013-07-03 09:42:00,78.1,59.1,30.02,NW,313,0.0,1.0,52,0.00,,,0.00,VWS V14.01,2013-07-03 14:42:00,
2013-07-03 09:46:00,78.4,61.9,30.02,NW,313,0.0,1.0,57,0.00,,,0.00,VWS V14.01,2013-07-03 14:46:00,
2013-07-03 09:51:00,78.5,60.5,30.02,NW,313,0.0,1.0,54,0.00,,,0.00,VWS V14.01,2013-07-03 14:51:00,
2013-07-03 09:52:00,78.6,61.1,30.02,NW,313,0.0,1.0,55,0.00,,,0.00,VWS V14.01,2013-07-03 14:52:00,
2013-07-03 09:57:00,78.7,59.6,30.02,South,172,0.0,2.0,52,0.00,,,0.00,VWS V14.01,2013-07-03 14:57:00,
2013-07-03 10:00:00,78.7,60.7,30.02,South,171,0.0,2.0,54,0.00,,,0.00,VWS V15.00,2013-07-03 15:00:00,
2013-07-03 10:01:00,78.8,60.8,30.02,South,172,0.0,2.0,54,0.00,,,0.00,VWS V14.01,2013-07-03 15:01:00,
2013-07-03 10:03:00,78.6,60.6,30.02,South,172,0.0,3.0,54,0.00,,,0.00,VWS V14.01,2013-07-03 15:03:00,
2013-07-03 10:06:00,78.3,57.0,30.02,South,172,0.0,3.0,48,0.00,,,0.00,VWS V14.01,2013-07-03 15:06:00,
2013-07-03 10:12:00,78.6,60.6,30.02,East,87,0.0,5.0,54,0.00,,,0.00,VWS V14.01,2013-07-03 15:12:00,
2013-07-03 10:15:00,78.9,59.2,30.02,East,90,3.0,5.0,51,0.00,,,0.00,VWS V14.01,2013-07-03 15:15:00,
2013-07-03 10:20:00,79.5,60.3,30.02,East,91,0.0,5.0,52,0.00,,,0.00,VWS V14.01,2013-07-03 15:20:00,
2013-07-03 10:25:00,80.0,59.7,30.02,East,90,0.0,5.0,50,0.00,,,0.00,VWS V14.01,2013-07-03 15:25:00,
2013-07-03 10:30:00,80.3,57.7,30.02,East,90,0.0,5.0,46,0.00,,,0.00,VWS V14.01,2013-07-03 15:30:00,
2013-07-03 10:35:00,80.6,61.4,30.02,East,90,1.0,4.0,52,0.00,,,0.00,VWS V14.01,2013-07-03 15:35:00,
2013-07-03 10:41:00,81.0,61.2,30.02,East,90,0.0,4.0,51,0.00,,,0.00,VWS V14.01,2013-07-03 15:41:00,
2013-07-03 10:46:00,80.6,60.8,30.02,East,90,0.0,4.0,51,0.00,,,0.00,VWS V14.01,2013-07-03 15:46:00,
2013-07-03 10:52:00,80.5,60.2,30.01,East,90,2.0,4.0,50,0.00,,,0.00,VWS V14.01,2013-07-03 15:52:00,
2013-07-03 10:53:00,80.6,59.7,30.01,East,90,0.0,4.0,49,0.00,,,0.00,VWS V14.01,2013-07-03 15:53:00,
2013-07-03 10:56:00,80.6,61.9,30.01,East,91,4.0,4.0,53,0.00,,,0.00,VWS V14.01,2013-07-03 15:56:00,
2013-07-03 11:02:00,80.6,58.5,30.01,East,91,0.0,1.0,47,0.00,,,0.00,VWS V14.01,2013-07-03 16:02:00,
2013-07-03 11:07:00,80.7,56.8,30.01,East,91,0.0,1.0,44,0.00,,,0.00,VWS V14.01,2013-07-03 16:07:00,
2013-07-03 11:12:00,80.8,61.0,30.01,SE,130,4.0,7.0,51,0.00,,,0.00,VWS V14.01,2013-07-03 16:12:00,
2013-07-03 11:18:00,81.3,58.0,30.01,ESE,113,2.0,7.0,45,0.00,,,0.00,VWS V14.01,2013-07-03 16:18:00,
2013-07-03 11:23:00,81.4,56.1,30.01,ENE,75,2.0,7.0,42,0.00,,,0.00,VWS V14.01,2013-07-03 16:23:00,
2013-07-03 11:28:00,80.9,55.7,30.01,ENE,74,1.0,7.0,42,0.00,,,0.00,VWS V14.01,2013-07-03 16:28:00,
2013-07-03 11:34:00,80.7,56.8,30.00,ENE,74,2.0,2.0,44,0.00,,,0.00,VWS V14.01,2013-07-03 16:34:00,
2013-07-03 11:39:00,80.4,55.9,30.00,NE,48,0.0,5.0,43,0.00,,,0.00,VWS V14.01,2013-07-03 16:39:00,
2013-07-03 11:45:00,81.0,55.1,30.00,East,92,2.0,7.0,41,0.00,,,0.00,VWS V14.01,2013-07-03 16:45:00,
2013-07-03 11:50:00,81.2,57.2,30.00,ESE,103,4.0,7.0,44,0.00,,,0.00,VWS V14.01,2013-07-03 16:50:00,
2013-07-03 11:55:00,81.7,57.0,30.00,ESE,117,1.0,7.0,43,0.00,,,0.00,VWS V14.01,2013-07-03 16:55:00,
2013-07-03 12:00:00,81.7,56.4,30.00,ESE,109,1.0,7.0,42,0.00,,,0.00,VWS V15.00,2013-07-03 17:00:00,
2013-07-03 12:01:00,81.7,56.4,30.00,ESE,109,1.0,7.0,42,0.00,,,0.00,VWS V14.01,2013-07-03 17:01:00,
2013-07-03 12:06:00,81.5,58.1,30.00,East,86,5.0,6.0,45,0.00,,,0.00,VWS V14.01,2013-07-03 17:06:00,
2013-07-03 12:11:00,81.8,57.1,30.00,ESE,110,0.0,6.0,43,0.00,,,0.00,VWS V14.01,2013-07-03 17:11:00,
2013-07-03 12:16:00,81.3,56.0,30.00,ESE,121,1.0,6.0,42,0.00,,,0.00,VWS V14.01,2013-07-03 17:16:00,
2013-07-03 12:22:00,81.4,56.8,30.00,ESE,112,6.0,10.0,43,0.00,,,0.00,VWS V14.01,2013-07-03 17:22:00,
2013-07-03 12:28:00,81.9,56.6,30.00,East,97,6.0,11.0,42,0.00,,,0.00,VWS V14.01,2013-07-03 17:28:00,
2013-07-03 12:33:00,82.4,59.6,30.00,ESE,117,4.0,10.0,46,0.00,,,0.00,VWS V14.01,2013-07-03 17:33:00,
2013-07-03 12:38:00,82.5,57.1,30.00,ENE,69,2.0,10.0,42,0.00,,,0.00,VWS V14.01,2013-07-03 17:38:00,
2013-07-03 12:44:00,81.5,56.2,29.99,NW,324,2.0,10.0,42,0.00,,,0.00,VWS V14.01,2013-07-03 17:44:00,
2013-07-03 12:49:00,81.1,57.2,29.99,NNW,341,6.0,10.0,44,0.00,,,0.00,VWS V14.01,2013-07-03 17:49:00,
2013-07-03 12:55:00,81.0,55.8,29.99,ENE,71,0.0,10.0,42,0.00,,,0.00,VWS V14.01,2013-07-03 17:55:00,
2013-07-03 13:01:00,81.2,57.2,29.99,East,81,0.0,10.0,44,0.00,,,0.00,VWS V14.01,2013-07-03 18:01:00,
2013-07-03 13:06:00,81.4,54.8,29.99,North,352,5.0,6.0,40,0.00,,,0.00,VWS V14.01,2013-07-03 18:06:00,
2013-07-03 13:11:00,81.2,56.6,29.99,ESE,108,0.0,6.0,43,0.00,,,0.00,VWS V14.01,2013-07-03 18:11:00,
2013-07-03 13:16:00,81.8,57.1,29.99,SE,144,6.0,7.0,43,0.00,,,0.00,VWS V14.01,2013-07-03 18:16:00,
2013-07-03 13:21:00,82.2,55.5,29.99,NE,44,3.0,7.0,40,0.00,,,0.00,VWS V14.01,2013-07-03 18:21:00,
2013-07-03 13:26:00,81.8,56.5,29.99,East,85,0.0,7.0,42,0.00,,,0.00,VWS V14.01,2013-07-03 18:26:00,
2013-07-03 13:32:00,81.4,54.1,29.99,NNW,329,3.0,6.0,39,0.00,,,0.00,VWS V14.01,2013-07-03 18:32:00,
2013-07-03 13:37:00,81.2,56.6,29.99,ESE,108,5.0,10.0,43,0.00,,,0.00,VWS V14.01,2013-07-03 18:37:00,
2013-07-03 13:42:00,81.7,55.0,29.99,East,79,1.0,10.0,40,0.00,,,0.00,VWS V14.01,2013-07-03 18:42:00,
2013-07-03 13:47:00,81.7,56.4,29.99,ESE,110,2.0,10.0,42,0.00,,,0.00,VWS V14.01,2013-07-03 18:47:00,
2013-07-03 13:53:00,82.1,58.0,29.98,ESE,121,5.0,11.0,44,0.00,,,0.00,VWS V14.01,2013-07-03 18:53:00,
2013-07-03 13:58:00,82.5,55.8,29.99,NE,51,2.0,11.0,40,0.00,,,0.00,VWS V14.01,2013-07-03 18:58:00,
2013-07-03 14:00:00,82.3,55.6,29.98,NNE,17,4.0,11.0,40,0.00,,,0.00,VWS V15.00,2013-07-03 19:00:00,
2013-07-03 14:04:00,81.9,55.2,29.98,North,360,0.0,5.0,40,0.00,,,0.00,VWS V14.01,2013-07-03 19:04:00,
2013-07-03 14:09:00,82.0,56.7,29.98,ENE,71,0.0,5.0,42,0.00,,,0.00,VWS V14.01,2013-07-03 19:09:00,
2013-07-03 14:15:00,82.2,58.1,29.98,SE,143,0.0,8.0,44,0.00,,,0.00,VWS V14.01,2013-07-03 19:15:00,
2013-07-03 14:20:00,82.8,56.7,29.98,SE,127,6.0,8.0,41,0.00,,,0.00,VWS V14.01,2013-07-03 19:20:00,
2013-07-03 14:25:00,83.2,57.1,29.98,East,93,4.0,8.0,41,0.00,,,0.00,VWS V14.01,2013-07-03 19:25:00,
2013-07-03 14:30:00,83.3,55.8,29.97,ENE,71,0.0,10.0,39,0.00,,,0.00,VWS V14.01,2013-07-03 19:30:00,
2013-07-03 14:35:00,82.9,54.0,29.97,North,6,4.0,9.0,37,0.00,,,0.00,VWS V14.01,2013-07-03 19:35:00,
2013-07-03 14:41:00,82.1,53.3,29.97,North,4,3.0,9.0,37,0.00,,,0.00,VWS V14.01,2013-07-03 19:41:00,
2013-07-03 14:46:00,81.8,55.1,29.97,NNE,24,4.0,9.0,40,0.00,,,0.00,VWS V14.01,2013-07-03 19:46:00,
2013-07-03 14:51:00,82.1,56.8,29.97,ESE,114,6.0,9.0,42,0.00,,,0.00,VWS V14.01,2013-07-03 19:51:00,
2013-07-03 14:56:00,82.8,54.6,29.97,NE,47,0.0,10.0,38,0.00,,,0.00,VWS V14.01,2013-07-03 19:56:00,
2013-07-03 15:01:00,82.8,56.0,29.97,SE,124,3.0,6.0,40,0.00,,,0.00,VWS V14.01,2013-07-03 20:01:00,
2013-07-03 15:07:00,83.6,56.0,29.97,ESE,111,6.0,9.0,39,0.00,,,0.00,VWS V14.01,2013-07-03 20:07:00,
2013-07-03 15:12:00,83.9,54.1,29.97,East,90,2.0,9.0,36,0.00,,,0.00,VWS V14.01,2013-07-03 20:12:00,
2013-07-03 15:18:00,83.2,53.5,29.97,NE,43,2.0,9.0,36,0.00,,,0.00,VWS V14.01,2013-07-03 20:18:00,
2013-07-03 15:23:00,82.7,53.8,29.97,NE,45,0.0,9.0,37,0.00,,,0.00,VWS V14.01,2013-07-03 20:23:00,
2013-07-03 15:28:00,82.4,53.5,29.96,North,6,2.0,9.0,37,0.00,,,0.00,VWS V14.01,2013-07-03 20:28:00,
2013-07-03 15:33:00,82.5,55.8,29.96,East,82,3.0,6.0,40,0.00,,,0.00,VWS V14.01,2013-07-03 20:33:00,
2013-07-03 15:38:00,82.9,52.5,29.96,ENE,78,0.0,6.0,35,0.00,,,0.00,VWS V14.01,2013-07-03 20:38:00,
2013-07-03 15:47:00,83.5,54.5,29.96,ESE,102,0.0,9.0,37,0.00,,,0.00,VWS V14.01,2013-07-03 20:47:00,
2013-07-03 15:52:00,83.7,58.8,29.96,ESE,111,2.0,9.0,43,0.00,,,0.00,VWS V14.01,2013-07-03 20:52:00,
2013-07-03 15:58:00,84.1,57.2,29.96,ESE,116,6.0,9.0,40,0.00,,,0.00,VWS V14.01,2013-07-03 20:58:00,
2013-07-03 16:03:00,83.6,54.6,29.96,ENE,72,2.0,4.0,37,0.00,,,0.00,VWS V14.01,2013-07-03 21:03:00,
2013-07-03 16:08:00,83.3,58.5,29.95,ESE,109,4.0,7.0,43,0.00,,,0.00,VWS V14.01,2013-07-03 21:08:00,
2013-07-03 16:14:00,83.1,57.7,29.95,East,91,2.0,7.0,42,0.00,,,0.00,VWS V14.01,2013-07-03 21:14:00,
2013-07-03 16:19:00,83.0,55.5,29.95,ENE,67,3.0,7.0,39,0.00,,,0.00,VWS V14.01,2013-07-03 21:19:00,
2013-07-03 16:25:00,82.8,55.3,29.95,ENE,66,0.0,7.0,39,0.00,,,0.00,VWS V14.01,2013-07-03 21:25:00,
2013-07-03 16:30:00,82.7,54.5,29.95,NE,44,2.0,7.0,38,0.00,,,0.00,VWS V14.01,2013-07-03 21:30:00,
2013-07-03 16:35:00,82.6,57.2,29.95,NE,45,0.0,3.0,42,0.00,,,0.00,VWS V14.01,2013-07-03 21:35:00,
2013-07-03 16:40:00,83.0,59.5,29.95,East,92,2.0,4.0,45,0.00,,,0.00,VWS V14.01,2013-07-03 21:40:00,
2013-07-03 16:46:00,83.1,55.6,29.95,East,79,3.0,4.0,39,0.00,,,0.00,VWS V14.01,2013-07-03 21:46:00,
2013-07-03 16:51:00,82.5,57.1,29.94,ENE,75,5.0,5.0,42,0.00,,,0.00,VWS V14.01,2013-07-03 21:51:00,
2013-07-03 16:57:00,82.9,56.1,29.95,ENE,75,0.0,5.0,40,0.00,,,0.00,VWS V14.01,2013-07-03 21:57:00,
2013-07-03 17:02:00,82.9,55.4,29.95,ENE,75,2.0,2.0,39,0.00,,,0.00,VWS V14.01,2013-07-03 22:02:00,
2013-07-03 17:08:00,83.2,57.8,29.94,ESE,119,0.0,5.0,42,0.00,,,0.00,VWS V14.01,2013-07-03 22:08:00,
2013-07-03 17:13:00,82.9,56.8,29.94,ENE,59,0.0,5.0,41,0.00,,,0.00,VWS V14.01,2013-07-03 22:13:00,
2013-07-03 17:18:00,82.5,55.1,29.94,NE,44,4.0,5.0,39,0.00,,,0.00,VWS V14.01,2013-07-03 22:18:00,
2013-07-03 17:23:00,82.4,57.0,29.94,ENE,67,4.0,5.0,42,0.00,,,0.00,VWS V14.01,2013-07-03 22:23:00,
2013-07-03 17:29:00,83.1,56.3,29.94,East,101,2.0,5.0,40,0.00,,,0.00,VWS V14.01,2013-07-03 22:29:00,
2013-07-03 17:35:00,83.9,55.6,29.93,East,93,1.0,4.0,38,0.00,,,0.00,VWS V14.01,2013-07-03 22:35:00,
2013-07-03 17:40:00,83.4,57.3,29.93,East,94,0.0,4.0,41,0.00,,,0.00,VWS V14.01,2013-07-03 22:40:00,
2013-07-03 17:45:00,83.1,57.7,29.93,East,94,4.0,5.0,42,0.00,,,0.00,VWS V14.01,2013-07-03 22:45:00,
2013-07-03 17:51:00,83.6,55.3,29.93,ESE,107,0.0,6.0,38,0.00,,,0.00,VWS V14.01,2013-07-03 22:51:00,
2013-07-03 17:56:00,84.0,57.1,29.93,ESE,107,0.0,6.0,40,0.00,,,0.00,VWS V14.01,2013-07-03 22:56:00,
2013-07-03 18:00:00,83.4,56.6,29.93,ENE,59,1.0,6.0,40,0.00,,,0.00,VWS V15.00,2013-07-03 23:00:00,
2013-07-03 18:01:00,83.4,56.6,29.93,ENE,60,2.0,2.0,40,0.00,,,0.00,VWS V14.01,2013-07-03 23:01:00,
2013-07-03 18:07:00,83.7,55.4,29.93,ESE,110,0.0,5.0,38,0.00,,,0.00,VWS V14.01,2013-07-03 23:07:00,
2013-07-03 18:12:00,83.7,55.4,29.93,East,85,0.0,5.0,38,0.00,,,0.00,VWS V14.01,2013-07-03 23:12:00,
2013-07-03 18:18:00,83.7,54.7,29.93,East,90,0.0,5.0,37,0.00,,,0.00,VWS V14.01,2013-07-03 23:18:00,
2013-07-03 18:23:00,84.1,54.3,29.93,East,85,0.0,5.0,36,0.00,,,0.00,VWS V14.01,2013-07-03 23:23:00,
2013-07-03 18:28:00,84.2,55.9,29.93,East,84,1.0,5.0,38,0.00,,,0.00,VWS V14.01,2013-07-03 23:28:00,
2013-07-03 18:34:00,84.4,57.5,29.92,East,87,1.0,5.0,40,0.00,,,0.00,VWS V14.01,2013-07-03 23:34:00,
2013-07-03 18:39:00,84.7,57.7,29.93,East,97,2.0,5.0,40,0.00,,,0.00,VWS V14.01,2013-07-03 23:39:00,
2013-07-03 18:44:00,85.0,56.6,29.92,East,98,2.0,5.0,38,0.00,,,0.00,VWS V14.01,2013-07-03 23:44:00,
2013-07-03 18:50:00,85.3,57.6,29.92,East,98,1.0,5.0,39,0.00,,,0.00,VWS V14.01,2013-07-03 23:50:00,
2013-07-03 18:55:00,85.6,58.5,29.92,East,99,0.0,5.0,40,0.00,,,0.00,VWS V14.01,2013-07-03 23:55:00,
2013-07-03 19:00:00,85.6,57.1,29.92,East,99,2.0,5.0,38,0.00,,,0.00,VWS V14.01,2013-07-04 00:00:00,
2013-07-03 19:05:00,85.7,57.9,29.92,East,99,2.0,4.0,39,0.00,,,0.00,VWS V14.01,2013-07-04 00:05:00,
2013-07-03 19:10:00,85.7,57.9,29.92,East,99,0.0,4.0,39,0.00,,,0.00,VWS V14.01,2013-07-04 00:10:00,
2013-07-03 19:15:00,85.9,58.1,29.92,East,99,0.0,4.0,39,0.00,,,0.00,VWS V14.01,2013-07-04 00:15:00,
2013-07-03 19:21:00,86.3,57.7,29.92,East,99,0.0,4.0,38,0.00,,,0.00,VWS V14.01,2013-07-04 00:21:00,
2013-07-03 19:26:00,86.5,59.3,29.92,East,99,0.0,4.0,40,0.00,,,0.00,VWS V14.01,2013-07-04 00:26:00,
2013-07-03 19:30:00,86.7,58.8,29.92,East,99,0.0,4.0,39,0.00,,,0.00,VWS V15.00,2013-07-04 00:30:00,
2013-07-03 19:32:00,86.8,59.6,29.92,East,99,0.0,0.0,40,0.00,,,0.00,VWS V14.01,2013-07-04 00:32:00,
2013-07-03 19:37:00,86.6,58.0,29.92,East,99,0.0,0.0,38,0.00,,,0.00,VWS V14.01,2013-07-04 00:37:00,
2013-07-03 19:43:00,86.5,60.0,29.92,East,99,0.0,1.0,41,0.00,,,0.00,VWS V14.01,2013-07-04 00:43:00,
2013-07-03 19:49:00,86.6,60.8,29.92,East,99,0.0,1.0,42,0.00,,,0.00,VWS V14.01,2013-07-04 00:49:00,
2013-07-03 19:54:00,86.6,62.8,29.92,East,99,0.0,1.0,45,0.00,,,0.00,VWS V14.01,2013-07-04 00:54:00,
2013-07-03 19:59:00,85.9,62.1,29.92,East,100,0.0,1.0,45,0.00,,,0.00,VWS V14.01,2013-07-04 00:59:00,
2013-07-03 20:05:00,85.8,63.9,29.91,East,99,0.0,0.0,48,0.00,,,0.00,VWS V14.01,2013-07-04 01:05:00,
2013-07-03 20:10:00,86.0,64.6,29.91,East,99,0.0,0.0,49,0.00,,,0.00,VWS V14.01,2013-07-04 01:10:00,
2013-07-03 20:15:00,86.1,64.7,29.91,East,99,0.0,0.0,49,0.00,,,0.00,VWS V14.01,2013-07-04 01:15:00,
2013-07-03 20:20:00,85.9,62.7,29.91,East,100,0.0,0.0,46,0.00,,,0.00,VWS V14.01,2013-07-04 01:20:00,
2013-07-03 20:25:00,85.6,61.8,29.91,East,100,0.0,0.0,45,0.00,,,0.00,VWS V14.01,2013-07-04 01:25:00,
2013-07-03 20:31:00,85.4,65.2,29.91,East,100,0.0,0.0,51,0.00,,,0.00,VWS V14.01,2013-07-04 01:31:00,
2013-07-03 20:38:00,85.0,66.5,29.91,East,100,0.0,0.0,54,0.00,,,0.00,VWS V14.01,2013-07-04 01:38:00,
2013-07-03 20:43:00,84.4,66.5,29.91,East,100,0.0,0.0,55,0.00,,,0.00,VWS V14.01,2013-07-04 01:43:00,
2013-07-03 20:49:00,83.6,66.3,29.91,East,100,0.0,0.0,56,0.00,,,0.00,VWS V14.01,2013-07-04 01:49:00,
2013-07-03 20:54:00,82.6,62.7,29.91,East,100,0.0,0.0,51,0.00,,,0.00,VWS V14.01,2013-07-04 01:54:00,
2013-07-03 21:00:00,81.0,62.3,29.91,East,100,0.0,0.0,53,0.00,,,0.00,VWS V14.01,2013-07-04 02:00:00,
2013-07-03 21:06:00,79.5,61.9,29.91,East,100,0.0,0.0,55,0.00,,,0.00,VWS V14.01,2013-07-04 02:06:00,
2013-07-03 21:11:00,78.2,62.2,29.91,East,100,0.0,0.0,58,0.00,,,0.00,VWS V14.01,2013-07-04 02:11:00,
2013-07-03 21:16:00,76.9,62.9,29.91,East,100,0.0,0.0,62,0.00,,,0.00,VWS V14.01,2013-07-04 02:16:00,
2013-07-03 21:21:00,76.0,62.0,29.91,East,101,0.0,0.0,62,0.00,,,0.00,VWS V14.01,2013-07-04 02:21:00,
2013-07-03 21:28:00,74.7,61.7,29.91,East,101,0.0,0.0,64,0.00,,,0.00,VWS V14.01,2013-07-04 02:28:00,
2013-07-03 21:33:00,73.8,61.7,29.91,East,101,0.0,0.0,66,0.00,,,0.00,VWS V14.01,2013-07-04 02:33:00,
2013-07-03 21:38:00,73.0,61.0,29.91,East,101,0.0,0.0,66,0.00,,,0.00,VWS V14.01,2013-07-04 02:38:00,
2013-07-03 21:43:00,72.4,61.2,29.91,East,101,0.0,0.0,68,0.00,,,0.00,VWS V14.01,2013-07-04 02:43:00,
2013-07-03 21:49:00,71.8,61.9,29.91,East,101,0.0,0.0,71,0.00,,,0.00,VWS V14.01,2013-07-04 02:49:00,
2013-07-03 21:54:00,71.3,61.4,29.91,East,101,0.0,0.0,71,0.00,,,0.00,VWS V14.01,2013-07-04 02:54:00,
2013-07-03 21:59:00,70.7,60.0,29.91,East,101,0.0,0.0,69,0.00,,,0.00,VWS V14.01,2013-07-04 02:59:00,
2013-07-03 22:05:00,70.1,59.5,29.92,East,101,0.0,0.0,69,0.00,,,0.00,VWS V14.01,2013-07-04 03:05:00,
2013-07-03 22:11:00,69.6,59.0,29.92,East,101,0.0,0.0,69,0.00,,,0.00,VWS V14.01,2013-07-04 03:11:00,
2013-07-03 22:16:00,69.1,59.7,29.92,East,101,0.0,0.0,72,0.00,,,0.00,VWS V14.01,2013-07-04 03:16:00,
2013-07-03 22:22:00,68.7,60.1,29.92,East,101,0.0,0.0,74,0.00,,,0.00,VWS V14.01,2013-07-04 03:22:00,
2013-07-03 22:27:00,68.3,60.1,29.92,ESE,102,0.0,0.0,75,0.00,,,0.00,VWS V14.01,2013-07-04 03:27:00,
2013-07-03 22:32:00,67.9,59.7,29.92,ESE,102,0.0,0.0,75,0.00,,,0.00,VWS V14.01,2013-07-04 03:32:00,
2013-07-03 22:37:00,67.5,59.3,29.92,ESE,102,0.0,0.0,75,0.00,,,0.00,VWS V14.01,2013-07-04 03:37:00,
2013-07-03 22:43:00,67.1,58.9,29.92,ESE,102,0.0,0.0,75,0.00,,,0.00,VWS V14.01,2013-07-04 03:43:00,
2013-07-03 22:48:00,66.7,58.5,29.92,East,101,0.0,0.0,75,0.00,,,0.00,VWS V14.01,2013-07-04 03:48:00,
2013-07-03 22:54:00,66.4,58.2,29.92,ESE,102,0.0,0.0,75,0.00,,,0.00,VWS V14.01,2013-07-04 03:54:00,
2013-07-03 22:59:00,66.2,58.8,29.92,ESE,102,0.0,0.0,77,0.00,,,0.00,VWS V14.01,2013-07-04 03:59:00,
2013-07-03 23:01:00,66.1,58.7,29.92,ESE,102,0.0,0.0,77,0.00,,,0.00,VWS V14.01,2013-07-04 04:01:00,
2013-07-03 23:02:00,66.0,58.6,29.91,ESE,102,0.0,0.0,77,0.00,,,0.00,VWS V14.01,2013-07-04 04:02:00,
2013-07-03 23:04:00,65.9,58.9,29.91,ESE,102,0.0,0.0,78,0.00,,,0.00,VWS V14.01,2013-07-04 04:04:00,
2013-07-03 23:09:00,65.7,58.7,29.92,ESE,102,0.0,0.0,78,0.00,,,0.00,VWS V14.01,2013-07-04 04:09:00,
2013-07-03 23:14:00,65.5,58.8,29.92,ESE,102,0.0,0.0,79,0.00,,,0.00,VWS V14.01,2013-07-04 04:14:00,
2013-07-03 23:19:00,65.3,57.9,29.92,ESE,102,0.0,0.0,77,0.00,,,0.00,VWS V14.01,2013-07-04 04:19:00,
2013-07-03 23:24:00,65.0,57.6,29.92,ESE,102,0.0,0.0,77,0.00,,,0.00,VWS V14.01,2013-07-04 04:24:00,
2013-07-03 23:29:00,64.9,57.9,29.92,ESE,102,0.0,0.0,78,0.00,,,0.00,VWS V14.01,2013-07-04 04:29:00,
2013-07-03 23:30:00,64.9,58.2,29.92,ESE,102,0.0,0.0,79,0.00,,,0.00,VWS V15.00,2013-07-04 04:30:00,
2013-07-03 23:34:00,64.8,58.5,29.92,ESE,102,0.0,0.0,80,0.00,,,0.00,VWS V14.01,2013-07-04 04:34:00,
2013-07-03 23:39:00,64.4,57.4,29.92,ENE,65,0.0,3.0,78,0.00,,,0.00,VWS V14.01,2013-07-04 04:39:00,
2013-07-03 23:44:00,64.3,57.3,29.92,ENE,65,0.0,3.0,78,0.00,,,0.00,VWS V14.01,2013-07-04 04:44:00,
2013-07-03 23:49:00,64.1,56.4,29.92,ENE,65,0.0,3.0,76,0.00,,,0.00,VWS V14.01,2013-07-04 04:49:00,
2013-07-03 23:54:00,64.2,57.6,29.92,ENE,65,0.0,3.0,79,0.00,,,0.00,VWS V14.01,2013-07-04 04:54:00,
2013-07-03 23:59:00,64.1,56.8,29.92,ENE,65,0.0,3.0,77,0.00,,,0.00,VWS V14.01,2013-07-04 04:59:00,